[[{"header":{"parameterUnit":"m.s-1","parameterCategory":1,"la1":30.2991,"la2":30.254,"lo1":-89.0895,"lo2":-89.0444,"dy":0.0017,"dx":0.0017,"nx":28,"ny":28,"refTime":"2024-05-18T03:00:00:Z","depth":0,"parameterNumber":2,"parameterNumberName":"U-component_of_WINDS"},"data":[0,0,0,0,0,0,0,0,0,0,0,0,0,0,0,0,0,0,0,0,0,0,0,0,0,0,0,0,0,0,0,0,0,0,0,0,0,0,0,0,0,0,0,0,0,0,0,0,0,0,0,0,0,0,0,0,0,0,0.646,0.6461,0,0.658,0.6581,0.6583,0.6636,0.6636,0.6636,0.6635,0.6763,0.6767,0.677,0,0,0,0,0,0,0,0,0,0,0,0,0,0.628,0.6283,0.646,0.6461,0.6463,0.658,0.6582,0.6583,0.6636,0.6636,0.6636,0.6635,0.6762,0.6766,0.6771,0,0,0,0,0,0,0,0,0,0,0,0,0,0.6375,0.6284,0.6459,0.6503,0.6508,0.658,0.6582,0.6584,0.6636,0.6636,0.6635,0.6635,0.6761,0.6766,0.6771,0.681,0,0,0.6788,0.679,0,0,0,0,0,0,0,0,0.637,0.6382,0.6495,0.65,0.6506,0.6593,0.6565,0.666,0.6636,0.6588,0.6635,0.6635,0.6707,0.6717,0.674,0.6816,0.6821,0.6788,0.6791,0.6794,0.6795,0,0,0,0,0,0,0,0.6363,0.6377,0.6507,0.6497,0.6503,0.6518,0.6531,0.6583,0.6648,0.6592,0.6596,0.6609,0.671,0.6735,0.6744,0.6823,0.6788,0.6793,0.6796,0.6798,0.6938,0.6938,0,0,0,0,0,0,0.6349,0.6371,0.6504,0.6511,0.6436,0.6521,0.6536,0.6565,0.6647,0.6659,0.6609,0.6611,0.6726,0.6737,0.6748,0.68,0.6794,0.6799,0.6802,0.6937,0.6938,0.6938,0,0,0,0,0,0,0.6345,0.636,0.6499,0.6442,0.6461,0.6525,0.6557,0.6568,0.6593,0.666,0.6672,0.6623,0.6726,0.6741,0.6794,0.6805,0.6801,0.6806,0.6937,0.6937,0.6938,0.6902,0,0,0,0,0,0,0.6339,0.6358,0.6372,0.6442,0.6464,0.6541,0.6557,0.657,0.6601,0.6605,0.6676,0.6688,0.6727,0.6786,0.6799,0.6812,0.681,0.6936,0.6937,0.6938,0.6902,0.6901,0.69,0,0,0,0,0,0.6333,0.6358,0.6373,0.6388,0.6482,0.6541,0.6554,0.6598,0.6602,0.6617,0.6661,0.6685,0.6801,0.6791,0.6807,0.6821,0.6936,0.6937,0.6938,0.6903,0.6901,0.69,0,0,0,0,0,0,0.6289,0.6368,0.6385,0.6433,0.648,0.655,0.6571,0.6594,0.6642,0.6644,0.6697,0.6713,0.6762,0.6797,0.6784,0.6863,0.6871,0.6875,0.6839,0.6838,0.6837,0.6828,0.6815,0,0,0,0,0,0.6285,0.6325,0.6392,0.6428,0.6451,0.6506,0.6534,0.6563,0.6615,0.6635,0.6683,0.6733,0.6781,0.6811,0.6859,0.6907,0.6925,0.6925,0.6924,0.6923,0.6926,0.6956,0.6957,0.6942,0.6942,0.6942,0,0,0.6277,0.6325,0.6347,0.6421,0.646,0.6502,0.6523,0.6566,0.6598,0.6642,0.6695,0.6732,0.6791,0.6842,0.6868,0.6873,0.6934,0.6924,0.6923,0.6927,0.6957,0.6959,0.696,0.6943,0.6943,0.6943,0,0,0.6285,0.6324,0.6359,0.6398,0.6457,0.6495,0.6503,0.6569,0.6595,0.6649,0.6683,0.6723,0.6803,0.6845,0.6876,0.6899,0.6924,0.6913,0.6908,0.6936,0.6938,0.6939,0.6948,0.6951,0.6916,0.6916,0.6916,0,0.6268,0.633,0.6375,0.6416,0.6448,0.6488,0.6525,0.6561,0.6633,0.6655,0.666,0.6763,0.6806,0.6868,0.6873,0.6897,0.691,0.6906,0.6933,0.6935,0.6937,0.6947,0.695,0.6915,0.6915,0.6915,0.6915,0,0.6308,0.6351,0.6372,0.6439,0.6474,0.6512,0.6564,0.6594,0.662,0.6657,0.6712,0.6765,0.6824,0.6841,0.6868,0.6907,0.6909,0.6923,0.6932,0.6936,0.6946,0.695,0.6912,0.6913,0.6913,0.6914,0,0,0.6291,0.6382,0.639,0.6421,0.6489,0.6524,0.6565,0.6622,0.6647,0.6696,0.6733,0.68,0.6814,0.6849,0.6881,0.6906,0.6922,0.6917,0.692,0.6917,0.697,0.696,0.6963,0.6938,0.6939,0.694,0.6966,0,0.6309,0.6382,0.6424,0.6481,0.6522,0.6561,0.6597,0.6644,0.668,0.6721,0.6762,0.6809,0.6822,0.6844,0.687,0.6914,0.6934,0.6913,0.6975,0.6977,0.696,0.6969,0.6958,0.6979,0.697,0.6971,0.6971,0,0.6339,0.6385,0.6446,0.6511,0.6529,0.6561,0.6617,0.6655,0.671,0.6734,0.6774,0.6805,0.6852,0.6856,0.6922,0.6907,0.6935,0.6961,0.6963,0.6971,0.6975,0.6978,0.6987,0.6991,0.6977,0.6977,0.6976,0,0.6322,0.64,0.6447,0.6472,0.6548,0.657,0.6603,0.6657,0.6688,0.6738,0.6759,0.6814,0.6844,0.6886,0.6932,0.6931,0.6994,0.7002,0.7017,0.7016,0.7029,0.7028,0.7044,0.7045,0.7045,0.7045,0.7045,0,0.6337,0.6373,0.644,0.6469,0.6511,0.6559,0.66,0.6636,0.6684,0.6722,0.676,0.6795,0.6853,0.6896,0.6932,0.6982,0.6995,0.7018,0.7027,0.7015,0.7012,0.7035,0.7035,0.7046,0.7046,0.7046,0.7046,0,0.6326,0.6372,0.6426,0.6493,0.6511,0.6539,0.6597,0.6628,0.6665,0.6713,0.6727,0.6787,0.6839,0.6889,0.6959,0.6984,0.7034,0.7046,0.7015,0.7021,0.7034,0.7032,0.7066,0.7073,0.7068,0.7068,0.7068,0,0.6333,0.6361,0.6431,0.6459,0.6491,0.6534,0.6567,0.6615,0.6647,0.6712,0.6735,0.679,0.6836,0.6919,0.6969,0.7024,0.7038,0.7046,0.7047,0.7034,0.704,0.7038,0.7041,0.7045,0.7045,0.7045,0.7045,0,0.6341,0.6363,0.6407,0.6459,0.6496,0.654,0.6586,0.6607,0.6664,0.6699,0.6752,0.6788,0.686,0.6914,0.6975,0.7011,0.7038,0.7044,0.7051,0.7039,0.702,0.7032,0.7014,0.7043,0.7043,0.7043,0.7043,0.7044,0.634,0.6368,0.6421,0.647,0.6509,0.655,0.6582,0.6623,0.6668,0.6729,0.6756,0.681,0.6865,0.6949,0.6984,0.7029,0.7035,0.7044,0.7047,0.7049,0.7047,0.7012,0.704,0.704,0.704,0.704,0.704,0,0.6351,0.6387,0.6431,0.6493,0.6532,0.6552,0.6604,0.6635,0.6682,0.673,0.6775,0.6837,0.689,0.6945,0.7002,0.7027,0.7041,0.704,0.704,0.7048,0.7037,0.7026,0.7028,0.7028,0.7028,0.7028,0.7028,0.7028,0.6361,0.6409,0.6437,0.6505,0.6542,0.6594,0.6622,0.6662,0.67,0.6767,0.6811,0.6846,0.6898,0.6959,0.7009,0.7024,0.7044,0.704,0.7058,0.7048,0.7048,0.7049,0.7039,0.7043,0.7043,0.7065,0.7066,0.7066]},{"header":{"parameterUnit":"m.s-1","parameterCategory":1,"la1":30.2991,"la2":30.254,"lo1":-89.0895,"lo2":-89.0444,"dy":0.0017,"dx":0.0017,"nx":28,"ny":28,"refTime":"2024-05-18T03:00:00:Z","depth":0,"parameterNumber":3,"parameterNumberName":"V-component_of_WINDS"},"data":[0,0,0,0,0,0,0,0,0,0,0,0,0,0,0,0,0,0,0,0,0,0,0,0,0,0,0,0,0,0,0,0,0,0,0,0,0,0,0,0,0,0,0,0,0,0,0,0,0,0,0,0,0,0,0,0,0,0,-0.4671,-0.4672,0,-0.4725,-0.4726,-0.4726,-0.4796,-0.4797,-0.4798,-0.4799,-0.4852,-0.4852,-0.4853,0,0,0,0,0,0,0,0,0,0,0,0,0,-0.4629,-0.463,-0.4671,-0.4672,-0.4672,-0.4725,-0.4726,-0.4726,-0.4796,-0.4797,-0.4798,-0.48,-0.4852,-0.4852,-0.4853,0,0,0,0,0,0,0,0,0,0,0,0,0,-0.4662,-0.463,-0.4671,-0.4713,-0.4718,-0.4725,-0.4726,-0.4727,-0.4795,-0.4797,-0.4799,-0.48,-0.4852,-0.4852,-0.4853,-0.4821,0,0,-0.4854,-0.4854,0,0,0,0,0,0,0,0,-0.466,-0.4663,-0.4706,-0.4711,-0.4715,-0.4756,-0.473,-0.4758,-0.4795,-0.4766,-0.4799,-0.4801,-0.4818,-0.4822,-0.4828,-0.4824,-0.4826,-0.4854,-0.4854,-0.4855,-0.4855,0,0,0,0,0,0,0,-0.4657,-0.4661,-0.4692,-0.4707,-0.4712,-0.473,-0.4737,-0.4736,-0.4782,-0.4768,-0.4774,-0.4779,-0.4821,-0.4827,-0.483,-0.4827,-0.4854,-0.4855,-0.4855,-0.4855,-0.4807,-0.4805,0,0,0,0,0,0,-0.4649,-0.4659,-0.4691,-0.4694,-0.4691,-0.473,-0.4737,-0.4741,-0.4782,-0.479,-0.4778,-0.4782,-0.4826,-0.4829,-0.4832,-0.4803,-0.4855,-0.4855,-0.4855,-0.4808,-0.4807,-0.4805,0,0,0,0,0,0,-0.4648,-0.4651,-0.4688,-0.4678,-0.4684,-0.4729,-0.4732,-0.4741,-0.4747,-0.4789,-0.4797,-0.4776,-0.4827,-0.4831,-0.4825,-0.4805,-0.4855,-0.4856,-0.481,-0.4808,-0.4806,-0.4741,0,0,0,0,0,0,-0.4646,-0.465,-0.4638,-0.4677,-0.4684,-0.468,-0.4731,-0.4741,-0.4748,-0.4755,-0.4789,-0.4797,-0.4829,-0.4824,-0.4826,-0.4807,-0.4856,-0.4812,-0.4809,-0.4806,-0.4745,-0.4737,-0.473,0,0,0,0,0,-0.4645,-0.4616,-0.4637,-0.4641,-0.467,-0.4679,-0.4683,-0.4721,-0.4746,-0.4736,-0.4763,-0.4795,-0.4807,-0.4823,-0.4825,-0.4806,-0.4814,-0.481,-0.4807,-0.4749,-0.4739,-0.473,0,0,0,0,0,0,-0.4571,-0.4622,-0.4646,-0.4629,-0.465,-0.4691,-0.4678,-0.4708,-0.4721,-0.4727,-0.4773,-0.478,-0.477,-0.4787,-0.4804,-0.4782,-0.4816,-0.4812,-0.4771,-0.4761,-0.4754,-0.4751,-0.4857,0,0,0,0,0,-0.4553,-0.4556,-0.46,-0.4581,-0.459,-0.4632,-0.4637,-0.4666,-0.4688,-0.4697,-0.4724,-0.4744,-0.4754,-0.4758,-0.4768,-0.4748,-0.4759,-0.4736,-0.4729,-0.4722,-0.4719,-0.4715,-0.4707,-0.4793,-0.4793,-0.4793,0,0,-0.4516,-0.4544,-0.4542,-0.4567,-0.4586,-0.459,-0.4639,-0.4639,-0.4643,-0.4697,-0.4695,-0.4715,-0.4741,-0.473,-0.4726,-0.4744,-0.4698,-0.4717,-0.4712,-0.4713,-0.4711,-0.4703,-0.4696,-0.4791,-0.4791,-0.4792,0,0,-0.445,-0.447,-0.446,-0.4479,-0.4509,-0.4537,-0.4535,-0.4573,-0.4589,-0.4588,-0.4631,-0.4635,-0.4648,-0.4667,-0.4678,-0.4625,-0.4657,-0.4627,-0.4586,-0.4582,-0.4575,-0.457,-0.4555,-0.4549,-0.4623,-0.4623,-0.4623,0,-0.44,-0.4407,-0.4449,-0.4449,-0.446,-0.4512,-0.4503,-0.4519,-0.455,-0.4557,-0.4577,-0.4598,-0.4619,-0.4615,-0.4603,-0.4609,-0.461,-0.4624,-0.4573,-0.4568,-0.4563,-0.455,-0.4543,-0.462,-0.462,-0.462,-0.4621,0,-0.4346,-0.435,-0.4338,-0.437,-0.4379,-0.4374,-0.4417,-0.4422,-0.445,-0.4478,-0.4478,-0.4506,-0.4525,-0.4526,-0.4551,-0.4527,-0.4538,-0.4564,-0.46,-0.4551,-0.4539,-0.4534,-0.4615,-0.4616,-0.4617,-0.4618,0,0,-0.4234,-0.4293,-0.4288,-0.4306,-0.4344,-0.4349,-0.4347,-0.4368,-0.4373,-0.4393,-0.4395,-0.4407,-0.4434,-0.4447,-0.4476,-0.4471,-0.4434,-0.45,-0.4501,-0.449,-0.4414,-0.4395,-0.4388,-0.4455,-0.4454,-0.4453,-0.4413,0,-0.4178,-0.418,-0.4221,-0.4212,-0.4219,-0.427,-0.427,-0.4294,-0.432,-0.4331,-0.4359,-0.4369,-0.4401,-0.441,-0.4408,-0.4439,-0.442,-0.4442,-0.4459,-0.4459,-0.4454,-0.4382,-0.4361,-0.4322,-0.4408,-0.4407,-0.4406,0,-0.4113,-0.4133,-0.4126,-0.417,-0.4174,-0.4173,-0.4198,-0.4206,-0.4236,-0.4256,-0.4273,-0.4307,-0.4311,-0.4343,-0.4351,-0.4365,-0.4375,-0.4391,-0.4391,-0.4396,-0.4431,-0.4388,-0.4309,-0.4305,-0.4399,-0.4399,-0.44,0,-0.4038,-0.4062,-0.4063,-0.4075,-0.4125,-0.4124,-0.4145,-0.4177,-0.4188,-0.421,-0.4219,-0.4239,-0.4251,-0.4267,-0.4307,-0.4326,-0.4312,-0.4346,-0.433,-0.4329,-0.4326,-0.4326,-0.4251,-0.4327,-0.4327,-0.4327,-0.4327,0,-0.3973,-0.3967,-0.4031,-0.4031,-0.4027,-0.4074,-0.407,-0.4095,-0.4124,-0.4132,-0.4176,-0.4182,-0.4233,-0.4245,-0.4276,-0.4281,-0.4284,-0.4302,-0.4311,-0.43,-0.4298,-0.4308,-0.4313,-0.4326,-0.4326,-0.4326,-0.4327,0,-0.3888,-0.393,-0.3934,-0.3983,-0.3995,-0.3991,-0.4033,-0.4036,-0.4066,-0.4076,-0.408,-0.4128,-0.4145,-0.4187,-0.4214,-0.4235,-0.4233,-0.4246,-0.4223,-0.4229,-0.4212,-0.4215,-0.4144,-0.4139,-0.4214,-0.4213,-0.4213,0,-0.3845,-0.3843,-0.3893,-0.3902,-0.3922,-0.3935,-0.3948,-0.3996,-0.4008,-0.4045,-0.4044,-0.4066,-0.4086,-0.4111,-0.4149,-0.4171,-0.4188,-0.4162,-0.4191,-0.4182,-0.4192,-0.4193,-0.4195,-0.4155,-0.4154,-0.4153,-0.4153,0,-0.3767,-0.3789,-0.3806,-0.3833,-0.3848,-0.3871,-0.3896,-0.39,-0.3954,-0.3966,-0.3986,-0.4001,-0.4032,-0.4054,-0.4083,-0.4105,-0.4139,-0.4143,-0.4142,-0.4131,-0.4119,-0.413,-0.4209,-0.4145,-0.4146,-0.4146,-0.4147,-0.4147,-0.3704,-0.3707,-0.3744,-0.3763,-0.3788,-0.3811,-0.3819,-0.3852,-0.3869,-0.3899,-0.3926,-0.3944,-0.3978,-0.4021,-0.4042,-0.4057,-0.4074,-0.407,-0.407,-0.4069,-0.4066,-0.4115,-0.4062,-0.4063,-0.4063,-0.4063,-0.4063,0,-0.3631,-0.3659,-0.3676,-0.3712,-0.3729,-0.376,-0.3791,-0.3802,-0.3818,-0.3848,-0.3868,-0.3893,-0.3916,-0.3956,-0.3983,-0.3988,-0.4004,-0.3993,-0.3995,-0.4,-0.4047,-0.4048,-0.398,-0.398,-0.398,-0.398,-0.398,-0.398,-0.3595,-0.3603,-0.363,-0.3651,-0.3678,-0.3698,-0.3713,-0.3736,-0.3761,-0.3787,-0.3807,-0.3834,-0.3869,-0.39,-0.3923,-0.3934,-0.3943,-0.3928,-0.3945,-0.3988,-0.3996,-0.4004,-0.4005,-0.3929,-0.3929,-0.3897,-0.3897,-0.3896]}]]